SCP
0 0 0 -0 0 0 0 0 0 0 0 0 0 0 -0 0 -0 -0 0 0 -0 -1 -1 -0 -0 -0 -0 -0 -0 -0 0 0
0 0 0 0 0 0 0 0 0 0 0 0 0 0 0 -0 0 0 0 0 -0 -0 -0 -0 -0 -0 -0 -0 -0 -0 0 0
0 0 0 0 0 0 0 0 0 0 0 1 0 0 0 0 0 0 0 0 0 -0 -0 -0 -0 -0 -0 -0 -0 -0 0 0
0 0 0 0 0 0 0 -0 0 0 0 1 0 0 0 0 0 0 1 1 1 0 0 0 0 0 -0 -0 -0 -0 -0 -0
0 0 0 0 0 0 0 0 0 -0 0 0 0 0 0 0 0 1 1 1 1 1 1 0 0 0 0 0 -0 0 0 -0
0 0 0 0 0 0 0 0 0 0 0 0 -0 0 0 0 1 1 1 0 1 1 1 1 1 0 0 0 0 0 0 0
0 0 0 0 0 0 0 0 0 0 0 0 0 0 0 0 1 1 1 0 1 1 1 1 1 1 1 0 0 0 0 0
0 0 0 0 0 -0 0 0 0 0 0 0 0 0 0 0 0 1 0 0 0 0 0 0 1 1 1 1 1 0 0 0
0 0 0 0 0 0 0 0 0 0 0 0 0 0 0 0 0 1 0 0 0 0 0 0 0 1 1 1 1 0 0 0
0 0 0 0 0 0 0 0 0 0 0 0 0 0 0 0 0 0 1 0 0 0 0 0 0 1 1 1 1 0 0 0
0 0 0 -0 0 0 0 0 0 0 0 0 0 0 0 0 0 0 1 2 0 0 0 0 0 0 0 0 0 0 0 0
0 0 0 0 0 0 0 0 0 0 0 0 0 0 0 0 0 0 0 0 1 0 0 0 0 0 0 0 0 0 0 0
0 0 0 0 0 0 0 0 0 0 0 0 0 0 0 0 0 -0 1 2 3 2 1 0 1 1 0 0 0 0 0 0
0 0 0 0 0 0 0 0 0 0 0 0 0 0 0 0 0 0 0 1 1 0 1 0 0 2 3 0 0 0 0 0
0 0 0 0 0 0 0 0 0 0 0 0 0 0 0 0 0 0 0 0 1 0 2 2 2 1 4 3 2 1 1 2
0 -0 -0 0 0 0 0 0 0 0 0 0 0 0 0 0 0 0 0 0 1 4 4 3 5 5 5 5 3 4 2 3
0 0 0 0 0 0 0 0 0 0 0 0 0 0 0 0 0 0 0 0 0 1 3 5 7 7 6 4 5 4 4 3
0 0 0 0 0 0 0 0 0 0 0 0 0 0 0 0 0 0 0 0 0 0 0 3 4 5 5 5 4 4 4 3
0 0 0 0 0 0 0 0 0 0 0 0 0 0 0 0 0 0 0 0 0 0 0 0 1 2 2 3 3 4 4 4
0 0 0 0 0 0 0 0 0 -0 0 0 0 0 0 0 0 0 0 0 0 0 0 0 0 1 1 2 3 3 2 3
Wind_Speed_500mb
6 8 19 16 38 21 10 24 15 7 33 14 22 48 45 32 47 39 60 66 65 61 57 51 48 45 42 39 36 35 35 34
5 20 25 42 41 47 23 10 5 17 18 25 60 56 48 46 42 46 64 65 64 60 55 51 47 45 44 41 36 33 32 33
10 21 24 36 54 58 13 30 17 26 11 22 34 54 60 55 44 56 65 64 61 58 55 50 47 45 45 43 38 34 32 31
15 33 35 38 62 11 7 36 39 5 27 19 43 71 60 47 35 49 58 63 59 54 51 50 48 47 45 46 41 35 31 30
18 31 32 44 43 12 13 23 23 32 8 40 47 55 51 41 38 35 38 54 57 56 51 47 47 48 47 46 43 37 31 27
26 31 39 45 44 26 19 13 15 40 2 20 35 44 50 46 46 36 30 32 47 53 53 52 51 49 48 48 44 39 35 33
32 33 35 30 17 12 53 7 28 6 52 53 44 36 46 50 52 39 35 28 43 51 51 50 51 53 51 50 47 41 38 36
22 31 36 35 12 32 29 7 15 26 29 33 43 39 50 47 62 46 42 36 23 48 52 51 53 57 58 57 54 50 45 43
40 63 64 42 20 25 18 5 21 14 36 35 30 35 47 54 58 60 43 37 31 27 43 47 53 58 61 61 59 55 51 48
48 58 60 30 33 13 14 21 22 16 14 10 15 14 22 8 17 36 53 39 32 28 19 32 45 50 58 61 61 58 55 51
65 60 67 56 16 6 28 18 12 14 6 13 10 12 15 12 20 32 52 60 42 45 24 23 38 41 41 57 63 61 58 55
52 63 59 20 12 4 16 27 30 29 13 9 16 17 26 23 23 15 18 53 68 58 35 28 32 43 49 43 52 61 62 62
24 22 15 26 12 16 23 33 36 35 35 27 28 24 29 43 41 24 13 65 70 59 42 41 45 48 56 54 43 53 59 61
13 14 30 16 15 14 35 43 45 43 48 50 31 44 41 44 50 25 7 42 53 61 64 53 61 49 56 55 51 49 51 54
15 17 21 20 12 19 46 60 51 60 49 38 33 40 42 38 40 36 27 30 33 47 47 52 62 51 71 56 53 55 57 56
18 34 23 27 22 21 47 41 47 64 52 43 42 49 47 42 30 28 29 22 25 28 33 44 47 51 53 62 64 65 63 64
24 33 25 32 24 25 35 32 16 34 35 32 38 43 43 38 50 38 33 36 23 20 20 33 41 45 54 61 59 80 65 65
17 11 7 4 17 16 13 12 22 48 54 56 48 45 27 31 34 36 30 27 28 32 28 33 35 47 53 56 54 53 61 69
11 19 15 11 7 9 10 13 35 41 62 63 62 51 45 36 29 27 28 22 14 12 22 26 35 40 45 50 51 51 56 62
13 16 8 5 10 11 11 23 21 45 52 51 66 55 52 55 42 36 34 22 15 15 15 16 21 29 40 45 45 54 61 58
Wind_Direction_500mb
200 200 236 259 256 242 291 345 46 52 101 84 111 125 145 172 169 180 170 162 159 160 160 156 154 154 153 151 146 145 148 149
245 256 246 248 273 275 321 339 355 296 78 87 140 146 162 175 174 182 171 165 162 162 162 161 160 159 160 159 157 154 155 158
230 249 259 262 260 268 279 287 287 244 89 97 118 152 160 174 174 179 170 166 165 165 165 166 166 167 166 166 165 164 164 165
226 250 259 256 259 341 284 260 304 56 108 103 135 145 158 167 172 172 167 168 167 169 170 170 172 173 174 172 172 174 173 172
244 259 263 252 250 118 286 287 4 338 96 132 137 148 156 153 160 170 160 171 172 172 174 175 177 178 178 179 178 178 178 179
241 252 260 268 275 171 273 318 138 276 17 122 147 150 157 153 173 172 167 175 182 180 179 180 180 182 182 183 184 184 186 184
242 244 253 270 39 213 194 117 283 41 123 139 140 155 160 159 170 175 183 191 192 188 186 186 184 184 186 188 189 190 193 195
242 253 262 281 314 236 191 350 209 111 190 145 153 170 167 170 167 184 190 183 197 198 191 191 191 190 190 191 195 197 198 199
241 260 267 277 289 278 151 172 240 165 165 167 172 187 176 181 182 188 201 205 204 203 202 201 199 197 197 198 200 202 204 204
246 244 259 263 252 176 275 177 182 195 94 77 109 169 163 171 170 175 188 210 206 200 190 212 218 205 207 207 207 209 210 209
239 253 263 274 289 172 240 286 294 255 222 180 243 264 265 210 176 212 203 196 200 213 198 210 224 221 218 219 216 214 216 217
226 235 248 239 243 262 272 270 277 300 274 238 217 250 276 244 263 242 235 207 202 196 206 207 227 223 229 231 229 224 221 221
234 242 264 262 262 231 237 268 264 264 274 269 237 237 237 248 263 266 206 182 199 200 232 212 227 235 226 231 235 230 226 227
246 231 257 227 245 250 241 242 241 244 243 248 248 246 242 245 240 235 222 196 199 206 208 226 225 220 221 220 228 240 237 236
278 251 215 181 218 229 245 232 232 229 229 213 240 253 241 245 229 223 224 174 198 204 216 218 220 213 216 219 217 230 237 241
225 241 236 216 215 221 233 249 234 215 203 207 227 245 252 231 231 216 215 215 200 200 216 218 234 233 220 228 226 221 229 234
237 242 222 221 200 205 219 235 162 165 177 202 232 250 227 231 235 220 211 221 217 215 209 222 231 239 237 231 236 230 228 229
283 313 333 288 205 195 204 221 209 193 202 214 216 233 224 197 202 212 215 231 241 252 259 242 231 240 243 244 248 246 242 246
312 314 318 337 284 221 236 235 264 239 223 220 207 214 223 217 198 215 214 197 201 250 265 269 254 243 247 253 257 257 253 257
294 302 266 2 271 268 226 242 242 248 233 205 201 208 219 220 216 197 176 173 183 187 213 260 268 270 253 253 259 258 259 261
Wind_Speed_850mb
6 8 19 16 38 21 10 24 15 7 33 14 22 48 45 32 47 39 60 66 65 61 57 51 48 45 42 39 36 35 35 34
5 20 25 42 41 47 23 10 5 17 18 25 60 56 48 46 42 46 64 65 64 60 55 51 47 45 44 41 36 33 32 33
10 21 24 36 54 58 13 30 17 26 11 22 34 54 60 55 44 56 65 64 61 58 55 50 47 45 45 43 38 34 32 31
15 33 35 38 62 11 7 36 39 5 27 19 43 71 60 47 35 49 58 63 59 54 51 50 48 47 45 46 41 35 31 30
18 31 32 44 43 12 13 23 23 32 8 40 47 55 51 41 38 35 38 54 57 56 51 47 47 48 47 46 43 37 31 27
26 31 39 45 44 26 19 13 15 40 2 20 35 44 50 46 46 36 30 32 47 53 53 52 51 49 48 48 44 39 35 33
32 33 35 30 17 12 53 7 28 6 52 53 44 36 46 50 52 39 35 28 43 51 51 50 51 53 51 50 47 41 38 36
22 31 36 35 12 32 29 7 15 26 29 33 43 39 50 47 62 46 42 36 23 48 52 51 53 57 58 57 54 50 45 43
40 63 64 42 20 25 18 5 21 14 36 35 30 35 47 54 58 60 43 37 31 27 43 47 53 58 61 61 59 55 51 48
48 58 60 30 33 13 14 21 22 16 14 10 15 14 22 8 17 36 53 39 32 28 19 32 45 50 58 61 61 58 55 51
65 60 67 56 16 6 28 18 12 14 6 13 10 12 15 12 20 32 52 60 42 45 24 23 38 41 41 57 63 61 58 55
52 63 59 20 12 4 16 27 30 29 13 9 16 17 26 23 23 15 18 53 68 58 35 28 32 43 49 43 52 61 62 62
24 22 15 26 12 16 23 33 36 35 35 27 28 24 29 43 41 24 13 65 70 59 42 41 45 48 56 54 43 53 59 61
13 14 30 16 15 14 35 43 45 43 48 50 31 44 41 44 50 25 7 42 53 61 64 53 61 49 56 55 51 49 51 54
15 17 21 20 12 19 46 60 51 60 49 38 33 40 42 38 40 36 27 30 33 47 47 52 62 51 71 56 53 55 57 56
18 34 23 27 22 21 47 41 47 64 52 43 42 49 47 42 30 28 29 22 25 28 33 44 47 51 53 62 64 65 63 64
24 33 25 32 24 25 35 32 16 34 35 32 38 43 43 38 50 38 33 36 23 20 20 33 41 45 54 61 59 80 65 65
17 11 7 4 17 16 13 12 22 48 54 56 48 45 27 31 34 36 30 27 28 32 28 33 35 47 53 56 54 53 61 69
11 19 15 11 7 9 10 13 35 41 62 63 62 51 45 36 29 27 28 22 14 12 22 26 35 40 45 50 51 51 56 62
13 16 8 5 10 11 11 23 21 45 52 51 66 55 52 55 42 36 34 22 15 15 15 16 21 29 40 45 45 54 61 58
Wind_Direction_850mb
200 200 236 259 256 242 291 345 46 52 101 84 111 125 145 172 169 180 170 162 159 160 160 156 154 154 153 151 146 145 148 149
245 256 246 248 273 275 321 339 355 296 78 87 140 146 162 175 174 182 171 165 162 162 162 161 160 159 160 159 157 154 155 158
230 249 259 262 260 268 279 287 287 244 89 97 118 152 160 174 174 179 170 166 165 165 165 166 166 167 166 166 165 164 164 165
226 250 259 256 259 341 284 260 304 56 108 103 135 145 158 167 172 172 167 168 167 169 170 170 172 173 174 172 172 174 173 172
244 259 263 252 250 118 286 287 4 338 96 132 137 148 156 153 160 170 160 171 172 172 174 175 177 178 178 179 178 178 178 179
241 252 260 268 275 171 273 318 138 276 17 122 147 150 157 153 173 172 167 175 182 180 179 180 180 182 182 183 184 184 186 184
242 244 253 270 39 213 194 117 283 41 123 139 140 155 160 159 170 175 183 191 192 188 186 186 184 184 186 188 189 190 193 195
242 253 262 281 314 236 191 350 209 111 190 145 153 170 167 170 167 184 190 183 197 198 191 191 191 190 190 191 195 197 198 199
241 260 267 277 289 278 151 172 240 165 165 167 172 187 176 181 182 188 201 205 204 203 202 201 199 197 197 198 200 202 204 204
246 244 259 263 252 176 275 177 182 195 94 77 109 169 163 171 170 175 188 210 206 200 190 212 218 205 207 207 207 209 210 209
239 253 263 274 289 172 240 286 294 255 222 180 243 264 265 210 176 212 203 196 200 213 198 210 224 221 218 219 216 214 216 217
226 235 248 239 243 262 272 270 277 300 274 238 217 250 276 244 263 242 235 207 202 196 206 207 227 223 229 231 229 224 221 221
234 242 264 262 262 231 237 268 264 264 274 269 237 237 237 248 263 266 206 182 199 200 232 212 227 235 226 231 235 230 226 227
246 231 257 227 245 250 241 242 241 244 243 248 248 246 242 245 240 235 222 196 199 206 208 226 225 220 221 220 228 240 237 236
278 251 215 181 218 229 245 232 232 229 229 213 240 253 241 245 229 223 224 174 198 204 216 218 220 213 216 219 217 230 237 241
225 241 236 216 215 221 233 249 234 215 203 207 227 245 252 231 231 216 215 215 200 200 216 218 234 233 220 228 226 221 229 234
237 242 222 221 200 205 219 235 162 165 177 202 232 250 227 231 235 220 211 221 217 215 209 222 231 239 237 231 236 230 228 229
283 313 333 288 205 195 204 221 209 193 202 214 216 233 224 197 202 212 215 231 241 252 259 242 231 240 243 244 248 246 242 246
312 314 318 337 284 221 236 235 264 239 223 220 207 214 223 217 198 215 214 197 201 250 265 269 254 243 247 253 257 257 253 257
294 302 266 2 271 268 226 242 242 248 233 205 201 208 219 220 216 197 176 173 183 187 213 260 268 270 253 253 259 258 259 261